contact:dominique.lefevre@mio.osupytheas.fr, maurice.libes@osupytheas.fr, didier.mallarino@osupytheas.fr
Project:EMSO http://www.emso-fr.org/EMSO-France
Depth: 2436.0 m
Title:EMSO Ligure Ouest : Data MII capteur MICROCAT
DateTime_Computer,Latitude,Longitude,Temperature,Conductivity,Pressure,DateTime_Instrument
DateTime_Computer,Latitude,Longitude,degC,S m-1,dbar,DateTime_Instrument
2020-09-23T00:00:31Z,42.805,6.029,13.2974,4.59978,2470.18,2020-9-23T02:01:24Z
2020-09-23T00:03:35Z,42.805,6.029,13.2979,4.59978,2470.156,2020-9-23T02:04:27Z
2020-09-23T00:06:38Z,42.805,6.029,13.2975,4.59979,2470.171,2020-9-23T02:07:30Z
2020-09-23T00:09:41Z,42.805,6.029,13.2975,4.59977,2470.156,2020-9-23T02:10:33Z
2020-09-23T00:12:45Z,42.805,6.029,13.2976,4.59980,2470.156,2020-9-23T02:13:37Z
2020-09-23T00:15:48Z,42.805,6.029,13.2976,4.59978,2470.156,2020-9-23T02:16:41Z
2020-09-23T00:18:52Z,42.805,6.029,13.2976,4.59978,2470.133,2020-9-23T02:19:44Z
2020-09-23T00:21:53Z,42.805,6.029,13.2977,4.59978,2470.171,2020-9-23T02:22:45Z
2020-09-23T00:24:57Z,42.805,6.029,13.2974,4.59979,2470.156,2020-9-23T02:25:49Z
2020-09-23T00:27:58Z,42.805,6.029,13.2976,4.59980,2470.156,2020-9-23T02:28:51Z
2020-09-23T00:31:01Z,42.805,6.029,13.2976,4.59978,2470.156,2020-9-23T02:31:54Z
2020-09-23T00:34:05Z,42.805,6.029,13.2974,4.59978,2470.156,2020-9-23T02:34:57Z
2020-09-23T00:37:09Z,42.805,6.029,13.2974,4.59976,2470.156,2020-9-23T02:38:01Z
2020-09-23T00:40:12Z,42.805,6.029,13.2976,4.59978,2470.147,2020-9-23T02:41:04Z
2020-09-23T00:43:15Z,42.805,6.029,13.2975,4.59978,2470.156,2020-9-23T02:44:07Z
2020-09-23T00:46:16Z,42.805,6.029,13.2977,4.59978,2470.133,2020-9-23T02:47:09Z
2020-09-23T00:49:18Z,42.805,6.029,13.2973,4.59976,2470.171,2020-9-23T02:50:11Z
2020-09-23T00:52:23Z,42.805,6.029,13.2974,4.59978,2470.171,2020-9-23T02:53:15Z
2020-09-23T00:55:27Z,42.805,6.029,13.2976,4.59976,2470.133,2020-9-23T02:56:19Z
2020-09-23T00:58:31Z,42.805,6.029,13.2976,4.59978,2470.133,2020-9-23T02:59:23Z
2020-09-23T01:01:35Z,42.805,6.029,13.2977,4.59977,2470.133,2020-9-23T03:02:27Z
2020-09-23T01:04:36Z,42.805,6.029,13.2975,4.59976,2470.156,2020-9-23T03:05:28Z
2020-09-23T01:07:38Z,42.805,6.029,13.2977,4.59978,2470.147,2020-9-23T03:08:30Z
2020-09-23T01:10:39Z,42.805,6.029,13.2976,4.59977,2470.133,2020-9-23T03:11:32Z
2020-09-23T01:13:44Z,42.805,6.029,13.2974,4.59976,2470.133,2020-9-23T03:14:36Z
2020-09-23T01:16:47Z,42.805,6.029,13.2977,4.59977,2470.147,2020-9-23T03:17:39Z
2020-09-23T01:19:52Z,42.805,6.029,13.2976,4.59976,2470.171,2020-9-23T03:20:44Z
2020-09-23T01:22:55Z,42.805,6.029,13.2975,4.59978,2470.133,2020-9-23T03:23:47Z
2020-09-23T01:25:57Z,42.805,6.029,13.2972,4.59976,2470.11,2020-9-23T03:26:49Z
2020-09-23T01:29:02Z,42.805,6.029,13.2973,4.59981,2470.124,2020-9-23T03:29:54Z
2020-09-23T01:32:04Z,42.805,6.029,13.2973,4.59976,2470.1,2020-9-23T03:32:56Z
2020-09-23T01:35:08Z,42.805,6.029,13.2974,4.59976,2470.133,2020-9-23T03:36:00Z
2020-09-23T01:38:11Z,42.805,6.029,13.2972,4.59976,2470.11,2020-9-23T03:39:03Z
2020-09-23T01:41:12Z,42.805,6.029,13.2976,4.59976,2470.087,2020-9-23T03:42:05Z
2020-09-23T01:44:16Z,42.805,6.029,13.2976,4.59976,2470.11,2020-9-23T03:45:08Z
2020-09-23T01:47:19Z,42.805,6.029,13.2979,4.59978,2470.124,2020-9-23T03:48:11Z
2020-09-23T01:50:22Z,42.805,6.029,13.2976,4.59977,2470.087,2020-9-23T03:51:14Z
2020-09-23T01:53:25Z,42.805,6.029,13.2976,4.59978,2470.087,2020-9-23T03:54:18Z
2020-09-23T01:56:29Z,42.805,6.029,13.2975,4.59976,2470.124,2020-9-23T03:57:21Z
2020-09-23T01:59:31Z,42.805,6.029,13.2976,4.59978,2470.124,2020-9-23T04:00:24Z
2020-09-23T02:02:35Z,42.805,6.029,13.2975,4.59976,2470.147,2020-9-23T04:03:27Z
2020-09-23T02:05:36Z,42.805,6.029,13.2975,4.59978,2470.11,2020-9-23T04:06:28Z
2020-09-23T02:08:41Z,42.805,6.029,13.2978,4.59977,2470.11,2020-9-23T04:09:33Z
2020-09-23T02:11:42Z,42.805,6.029,13.2974,4.59977,2470.11,2020-9-23T04:12:35Z
2020-09-23T02:14:46Z,42.805,6.029,13.2974,4.59980,2470.11,2020-9-23T04:15:38Z
2020-09-23T02:17:47Z,42.805,6.029,13.2976,4.59978,2470.11,2020-9-23T04:18:39Z
2020-09-23T02:20:51Z,42.805,6.029,13.2975,4.59978,2470.1,2020-9-23T04:21:43Z
2020-09-23T02:23:54Z,42.805,6.029,13.2975,4.59977,2470.11,2020-9-23T04:24:46Z
2020-09-23T02:26:55Z,42.805,6.029,13.2974,4.59977,2470.11,2020-9-23T04:27:47Z
2020-09-23T02:30:00Z,42.805,6.029,13.2974,4.59976,2470.147,2020-9-23T04:30:52Z
2020-09-23T02:33:03Z,42.805,6.029,13.2974,4.59978,2470.11,2020-9-23T04:33:56Z
2020-09-23T02:36:07Z,42.805,6.029,13.2973,4.59977,2470.073,2020-9-23T04:37:00Z
2020-09-23T02:39:09Z,42.805,6.029,13.2976,4.59978,2470.1,2020-9-23T04:40:01Z
2020-09-23T02:42:10Z,42.805,6.029,13.2978,4.59976,2470.124,2020-9-23T04:43:02Z
2020-09-23T02:45:12Z,42.805,6.029,13.2976,4.59978,2470.077,2020-9-23T04:46:04Z
2020-09-23T02:48:15Z,42.805,6.029,13.2977,4.59978,2470.063,2020-9-23T04:49:07Z
2020-09-23T02:51:19Z,42.805,6.029,13.2975,4.59977,2470.1,2020-9-23T04:52:12Z
2020-09-23T02:54:22Z,42.805,6.029,13.2975,4.59976,2470.11,2020-9-23T04:55:14Z
2020-09-23T02:57:26Z,42.805,6.029,13.2980,4.59976,2470.124,2020-9-23T04:58:18Z
2020-09-23T03:00:30Z,42.805,6.029,13.2975,4.59977,2470.11,2020-9-23T05:01:22Z
2020-09-23T03:03:32Z,42.805,6.029,13.2976,4.59978,2470.087,2020-9-23T05:04:24Z
2020-09-23T03:06:36Z,42.805,6.029,13.2974,4.59976,2470.063,2020-9-23T05:07:29Z
2020-09-23T03:09:40Z,42.805,6.029,13.2976,4.59975,2470.147,2020-9-23T05:10:32Z
2020-09-23T03:12:44Z,42.805,6.029,13.2974,4.59975,2470.1,2020-9-23T05:13:36Z
2020-09-23T03:15:49Z,42.805,6.029,13.2975,4.59976,2470.063,2020-9-23T05:16:41Z
2020-09-23T03:18:52Z,42.805,6.029,13.2976,4.59979,2470.1,2020-9-23T05:19:44Z
2020-09-23T03:21:55Z,42.805,6.029,13.2976,4.59978,2470.063,2020-9-23T05:22:47Z
2020-09-23T03:24:57Z,42.805,6.029,13.2976,4.59981,2470.1,2020-9-23T05:25:49Z
2020-09-23T03:28:00Z,42.805,6.029,13.2971,4.59976,2470.124,2020-9-23T05:28:52Z
2020-09-23T03:31:03Z,42.805,6.029,13.2974,4.59976,2470.11,2020-9-23T05:31:55Z
2020-09-23T03:34:06Z,42.805,6.029,13.2976,4.59979,2470.063,2020-9-23T05:34:58Z
2020-09-23T03:37:07Z,42.805,6.029,13.2974,4.59976,2470.063,2020-9-23T05:37:59Z
2020-09-23T03:40:11Z,42.805,6.029,13.2975,4.59978,2470.087,2020-9-23T05:41:03Z
2020-09-23T03:43:14Z,42.805,6.029,13.2975,4.59976,2470.063,2020-9-23T05:44:06Z
2020-09-23T03:46:16Z,42.805,6.029,13.2976,4.59976,2470.087,2020-9-23T05:47:08Z
2020-09-23T03:49:17Z,42.805,6.029,13.2974,4.59981,2470.077,2020-9-23T05:50:09Z
2020-09-23T03:52:21Z,42.805,6.029,13.2974,4.59978,2470.1,2020-9-23T05:53:13Z
2020-09-23T03:55:23Z,42.805,6.029,13.2972,4.59975,2470.077,2020-9-23T05:56:15Z
2020-09-23T03:58:24Z,42.805,6.029,13.2974,4.59978,2470.1,2020-9-23T05:59:17Z
2020-09-23T04:01:29Z,42.805,6.029,13.2972,4.59976,2470.063,2020-9-23T06:02:21Z
2020-09-23T04:04:33Z,42.805,6.029,13.2975,4.59976,2470.077,2020-9-23T06:05:25Z
2020-09-23T04:07:36Z,42.805,6.029,13.2976,4.59976,2470.077,2020-9-23T06:08:28Z
2020-09-23T04:10:39Z,42.805,6.029,13.2974,4.59976,2470.04,2020-9-23T06:11:31Z
2020-09-23T04:13:42Z,42.805,6.029,13.2974,4.59976,2470.04,2020-9-23T06:14:35Z
2020-09-23T04:16:46Z,42.805,6.029,13.2976,4.59976,2470.04,2020-9-23T06:17:38Z
2020-09-23T04:19:47Z,42.805,6.029,13.2977,4.59976,2470.017,2020-9-23T06:20:39Z
2020-09-23T04:22:49Z,42.805,6.029,13.2975,4.59976,2470.077,2020-9-23T06:23:41Z
2020-09-23T04:25:52Z,42.805,6.029,13.2974,4.59976,2470.053,2020-9-23T06:26:44Z
2020-09-23T04:28:53Z,42.805,6.029,13.2974,4.59975,2470.053,2020-9-23T06:29:46Z
2020-09-23T04:31:57Z,42.805,6.029,13.2976,4.59978,2470.077,2020-9-23T06:32:50Z
2020-09-23T04:34:59Z,42.805,6.029,13.2974,4.59976,2470.03,2020-9-23T06:35:51Z
2020-09-23T04:38:04Z,42.805,6.029,13.2975,4.59975,2470.053,2020-9-23T06:38:56Z
2020-09-23T04:41:05Z,42.805,6.029,13.2976,4.59976,2470.063,2020-9-23T06:41:57Z
2020-09-23T04:44:09Z,42.805,6.029,13.2974,4.59976,2470.063,2020-9-23T06:45:02Z
2020-09-23T04:47:11Z,42.805,6.029,13.2975,4.59976,2470.04,2020-9-23T06:48:03Z
2020-09-23T04:50:14Z,42.805,6.029,13.2977,4.59976,2470.017,2020-9-23T06:51:07Z
2020-09-23T04:53:19Z,42.805,6.029,13.2972,4.59975,2470.04,2020-9-23T06:54:11Z
2020-09-23T04:56:22Z,42.805,6.029,13.2974,4.59976,2470.063,2020-9-23T06:57:14Z
2020-09-23T04:59:23Z,42.805,6.029,13.2976,4.59976,2470.04,2020-9-23T07:00:15Z
2020-09-23T05:02:26Z,42.805,6.029,13.2979,4.59976,2470.063,2020-9-23T07:03:19Z
2020-09-23T05:05:29Z,42.805,6.029,13.2976,4.59976,2470.017,2020-9-23T07:06:22Z
2020-09-23T05:08:32Z,42.805,6.029,13.2975,4.59976,2470.04,2020-9-23T07:09:24Z
2020-09-23T05:11:35Z,42.805,6.029,13.2973,4.59979,2469.993,2020-9-23T07:12:28Z
2020-09-23T05:14:39Z,42.805,6.029,13.2975,4.59975,2470.04,2020-9-23T07:15:31Z
2020-09-23T05:17:41Z,42.805,6.029,13.2975,4.59976,2470.017,2020-9-23T07:18:34Z
2020-09-23T05:20:43Z,42.805,6.029,13.2976,4.59976,2470.03,2020-9-23T07:21:35Z
2020-09-23T05:23:46Z,42.805,6.029,13.2975,4.59976,2470.04,2020-9-23T07:24:38Z
2020-09-23T05:26:49Z,42.805,6.029,13.2974,4.59978,2470.03,2020-9-23T07:27:41Z
2020-09-23T05:29:52Z,42.805,6.029,13.2974,4.59975,2470.04,2020-9-23T07:30:44Z
2020-09-23T05:32:56Z,42.805,6.029,13.2974,4.59978,2470.04,2020-9-23T07:33:48Z
2020-09-23T05:36:00Z,42.805,6.029,13.2976,4.59977,2470.017,2020-9-23T07:36:52Z
2020-09-23T05:39:01Z,42.805,6.029,13.2975,4.59978,2470.017,2020-9-23T07:39:54Z
2020-09-23T05:42:05Z,42.805,6.029,13.2975,4.59976,2470.03,2020-9-23T07:42:57Z
2020-09-23T05:45:09Z,42.805,6.029,13.2972,4.59976,2470.053,2020-9-23T07:46:01Z
2020-09-23T05:48:10Z,42.805,6.029,13.2976,4.59977,2470.077,2020-9-23T07:49:02Z
2020-09-23T05:51:13Z,42.805,6.029,13.2973,4.59975,2470.077,2020-9-23T07:52:06Z
2020-09-23T05:54:17Z,42.805,6.029,13.2979,4.59976,2470.04,2020-9-23T07:55:09Z
2020-09-23T05:57:21Z,42.805,6.029,13.2977,4.59974,2470.04,2020-9-23T07:58:13Z
2020-09-23T06:00:24Z,42.805,6.029,13.2979,4.59975,2470.063,2020-9-23T08:01:16Z
2020-09-23T06:03:29Z,42.805,6.029,13.2975,4.59976,2470.053,2020-9-23T08:04:21Z
2020-09-23T06:06:32Z,42.805,6.029,13.2973,4.59975,2470.04,2020-9-23T08:07:25Z
2020-09-23T06:09:36Z,42.805,6.029,13.2975,4.59978,2470.04,2020-9-23T08:10:29Z
2020-09-23T06:12:40Z,42.805,6.029,13.2976,4.59974,2470.077,2020-9-23T08:13:32Z
2020-09-23T06:15:44Z,42.805,6.029,13.2979,4.59975,2470.04,2020-9-23T08:16:37Z
2020-09-23T06:18:47Z,42.805,6.029,13.2973,4.59976,2470.077,2020-9-23T08:19:40Z
2020-09-23T06:21:51Z,42.805,6.029,13.2972,4.59976,2470.04,2020-9-23T08:22:43Z
2020-09-23T06:24:54Z,42.805,6.029,13.2974,4.59976,2470.04,2020-9-23T08:25:46Z
2020-09-23T06:27:56Z,42.805,6.029,13.2979,4.59980,2470.017,2020-9-23T08:28:48Z
2020-09-23T06:30:58Z,42.805,6.029,13.2977,4.59976,2470.04,2020-9-23T08:31:51Z
2020-09-23T06:34:00Z,42.805,6.029,13.2971,4.59976,2470.04,2020-9-23T08:34:53Z
2020-09-23T06:37:04Z,42.805,6.029,13.2975,4.59975,2470.063,2020-9-23T08:37:57Z
2020-09-23T06:40:08Z,42.805,6.029,13.2976,4.59975,2470.053,2020-9-23T08:41:00Z
2020-09-23T06:43:11Z,42.805,6.029,13.2972,4.59976,2470.04,2020-9-23T08:44:03Z
2020-09-23T06:46:14Z,42.805,6.029,13.2977,4.59975,2470.063,2020-9-23T08:47:05Z
2020-09-23T06:49:17Z,42.805,6.029,13.2973,4.59975,2470.04,2020-9-23T08:50:09Z
2020-09-23T06:52:20Z,42.805,6.029,13.2976,4.59975,2470.077,2020-9-23T08:53:12Z
2020-09-23T06:55:22Z,42.805,6.029,13.2976,4.59976,2470.04,2020-9-23T08:56:14Z
2020-09-23T06:58:26Z,42.805,6.029,13.2972,4.59978,2470.077,2020-9-23T08:59:19Z
2020-09-23T07:01:28Z,42.805,6.029,13.2971,4.59978,2470.053,2020-9-23T09:02:20Z
2020-09-23T07:04:32Z,42.805,6.029,13.2975,4.59975,2470.063,2020-9-23T09:05:24Z
2020-09-23T07:07:35Z,42.805,6.029,13.2976,4.59976,2470.063,2020-9-23T09:08:27Z
2020-09-23T07:10:37Z,42.805,6.029,13.2973,4.59975,2470.04,2020-9-23T09:11:29Z
2020-09-23T07:13:40Z,42.805,6.029,13.2977,4.59975,2470.063,2020-9-23T09:14:32Z
2020-09-23T07:16:44Z,42.805,6.029,13.2974,4.59975,2470.04,2020-9-23T09:17:36Z
2020-09-23T07:19:47Z,42.805,6.029,13.2974,4.59975,2470.063,2020-9-23T09:20:39Z
2020-09-23T07:22:50Z,42.805,6.029,13.2973,4.59976,2470.063,2020-9-23T09:23:43Z
2020-09-23T07:25:54Z,42.805,6.029,13.2971,4.59978,2470.077,2020-9-23T09:26:46Z
2020-09-23T07:28:57Z,42.805,6.029,13.2976,4.59975,2470.087,2020-9-23T09:29:49Z
2020-09-23T07:32:00Z,42.805,6.029,13.2973,4.59975,2470.063,2020-9-23T09:32:52Z
2020-09-23T07:35:04Z,42.805,6.029,13.2972,4.59974,2470.077,2020-9-23T09:35:56Z
2020-09-23T07:38:08Z,42.805,6.029,13.2971,4.59975,2470.087,2020-9-23T09:39:00Z
2020-09-23T07:41:10Z,42.805,6.029,13.2975,4.59974,2470.087,2020-9-23T09:42:03Z
2020-09-23T07:44:15Z,42.805,6.029,13.2973,4.59974,2470.087,2020-9-23T09:45:07Z
2020-09-23T07:47:17Z,42.805,6.029,13.2977,4.59979,2470.087,2020-9-23T09:48:10Z
2020-09-23T07:50:22Z,42.805,6.029,13.2974,4.59976,2470.087,2020-9-23T09:51:14Z
2020-09-23T07:53:25Z,42.805,6.029,13.2973,4.59975,2470.087,2020-9-23T09:54:17Z
2020-09-23T07:56:29Z,42.805,6.029,13.2976,4.59976,2470.1,2020-9-23T09:57:21Z
2020-09-23T07:59:31Z,42.805,6.029,13.2978,4.59975,2470.11,2020-9-23T10:00:23Z
2020-09-23T08:02:35Z,42.805,6.029,13.2976,4.59981,2470.133,2020-9-23T10:03:28Z
2020-09-23T08:05:40Z,42.805,6.029,13.2975,4.59974,2470.087,2020-9-23T10:06:32Z
2020-09-23T08:08:44Z,42.805,6.029,13.2978,4.59978,2470.1,2020-9-23T10:09:36Z
2020-09-23T08:11:48Z,42.805,6.029,13.2975,4.59976,2470.124,2020-9-23T10:12:40Z
2020-09-23T08:14:51Z,42.805,6.029,13.2977,4.59979,2470.063,2020-9-23T10:15:43Z
2020-09-23T08:17:53Z,42.805,6.029,13.2974,4.59974,2470.11,2020-9-23T10:18:45Z
2020-09-23T08:20:54Z,42.805,6.029,13.2976,4.59975,2470.087,2020-9-23T10:21:47Z
2020-09-23T08:23:58Z,42.805,6.029,13.2971,4.59975,2470.063,2020-9-23T10:24:50Z
2020-09-23T08:27:02Z,42.805,6.029,13.2973,4.59978,2470.11,2020-9-23T10:27:55Z
2020-09-23T08:30:06Z,42.805,6.029,13.2978,4.59975,2470.124,2020-9-23T10:30:58Z
2020-09-23T08:33:09Z,42.805,6.029,13.2974,4.59976,2470.11,2020-9-23T10:34:02Z
2020-09-23T08:36:12Z,42.805,6.029,13.2975,4.59976,2470.087,2020-9-23T10:37:05Z
2020-09-23T08:39:16Z,42.805,6.029,13.2977,4.59979,2470.1,2020-9-23T10:40:08Z
2020-09-23T08:42:19Z,42.805,6.029,13.2974,4.59975,2470.1,2020-9-23T10:43:11Z
2020-09-23T08:45:22Z,42.805,6.029,13.2974,4.59975,2470.133,2020-9-23T10:46:14Z
2020-09-23T08:48:25Z,42.805,6.029,13.2972,4.59978,2470.133,2020-9-23T10:49:18Z
2020-09-23T08:51:29Z,42.805,6.029,13.2971,4.59976,2470.147,2020-9-23T10:52:21Z
2020-09-23T08:54:32Z,42.805,6.029,13.2973,4.59976,2470.124,2020-9-23T10:55:25Z
2020-09-23T08:57:36Z,42.805,6.029,13.2973,4.59976,2470.133,2020-9-23T10:58:28Z
2020-09-23T09:00:39Z,42.805,6.029,13.2974,4.59976,2470.156,2020-9-23T11:01:31Z
2020-09-23T09:03:42Z,42.805,6.029,13.2978,4.59976,2470.147,2020-9-23T11:04:34Z
2020-09-23T09:06:45Z,42.805,6.029,13.2973,4.59976,2470.133,2020-9-23T11:07:37Z
2020-09-23T09:09:48Z,42.805,6.029,13.2972,4.59976,2470.119,2020-9-23T11:10:41Z
2020-09-23T09:12:52Z,42.805,6.029,13.2976,4.59976,2470.147,2020-9-23T11:13:44Z
2020-09-23T09:15:55Z,42.805,6.029,13.2976,4.59978,2470.133,2020-9-23T11:16:48Z
2020-09-23T09:18:59Z,42.805,6.029,13.2974,4.59976,2470.147,2020-9-23T11:19:51Z
2020-09-23T09:22:02Z,42.805,6.029,13.2975,4.59976,2470.171,2020-9-23T11:22:54Z
2020-09-23T09:25:05Z,42.805,6.029,13.2976,4.59976,2470.147,2020-9-23T11:25:58Z
2020-09-23T09:28:09Z,42.805,6.029,13.2975,4.59976,2470.156,2020-9-23T11:29:01Z
2020-09-23T09:31:10Z,42.805,6.029,13.2976,4.59975,2470.133,2020-9-23T11:32:02Z
2020-09-23T09:34:14Z,42.805,6.029,13.2976,4.59976,2470.171,2020-9-23T11:35:06Z
2020-09-23T09:37:18Z,42.805,6.029,13.2973,4.59976,2470.18,2020-9-23T11:38:10Z
2020-09-23T09:40:23Z,42.805,6.029,13.2976,4.59978,2470.18,2020-9-23T11:41:15Z
2020-09-23T09:43:28Z,42.805,6.029,13.2978,4.59976,2470.194,2020-9-23T11:44:20Z
2020-09-23T09:46:32Z,42.805,6.029,13.2976,4.59978,2470.156,2020-9-23T11:47:24Z
2020-09-23T09:49:36Z,42.805,6.029,13.2973,4.59976,2470.194,2020-9-23T11:50:28Z
2020-09-23T09:52:41Z,42.805,6.029,13.2976,4.59976,2470.18,2020-9-23T11:53:33Z
2020-09-23T09:55:44Z,42.805,6.029,13.2975,4.59976,2470.156,2020-9-23T11:56:36Z
2020-09-23T09:58:45Z,42.805,6.029,13.2974,4.59978,2470.18,2020-9-23T11:59:37Z
2020-09-23T10:01:49Z,42.805,6.029,13.2975,4.59976,2470.227,2020-9-23T12:02:42Z
2020-09-23T10:04:51Z,42.805,6.029,13.2974,4.59976,2470.171,2020-9-23T12:05:43Z
2020-09-23T10:07:56Z,42.805,6.029,13.2974,4.59976,2470.194,2020-9-23T12:08:48Z
2020-09-23T10:11:01Z,42.805,6.029,13.2975,4.59976,2470.18,2020-9-23T12:11:53Z
2020-09-23T10:14:04Z,42.805,6.029,13.2974,4.59976,2470.217,2020-9-23T12:14:56Z
2020-09-23T10:17:05Z,42.805,6.029,13.2973,4.59975,2470.18,2020-9-23T12:17:57Z
2020-09-23T10:20:09Z,42.805,6.029,13.2974,4.59976,2470.203,2020-9-23T12:21:02Z
2020-09-23T10:23:13Z,42.805,6.029,13.2975,4.59976,2470.18,2020-9-23T12:24:05Z
2020-09-23T10:26:17Z,42.805,6.029,13.2974,4.59976,2470.217,2020-9-23T12:27:09Z
2020-09-23T10:29:18Z,42.805,6.029,13.2974,4.59975,2470.194,2020-9-23T12:30:10Z
2020-09-23T10:32:22Z,42.805,6.029,13.2976,4.59977,2470.194,2020-9-23T12:33:15Z
2020-09-23T10:35:24Z,42.805,6.029,13.2975,4.59976,2470.203,2020-9-23T12:36:17Z
2020-09-23T10:38:29Z,42.805,6.029,13.2971,4.59976,2470.18,2020-9-23T12:39:21Z
2020-09-23T10:41:31Z,42.805,6.029,13.2976,4.59975,2470.18,2020-9-23T12:42:23Z
2020-09-23T10:44:34Z,42.805,6.029,13.2974,4.59976,2470.18,2020-9-23T12:45:26Z
2020-09-23T10:47:36Z,42.805,6.029,13.2974,4.59976,2470.203,2020-9-23T12:48:29Z
2020-09-23T10:50:40Z,42.805,6.029,13.2975,4.59976,2470.203,2020-9-23T12:51:32Z
2020-09-23T10:53:43Z,42.805,6.029,13.2975,4.59976,2470.18,2020-9-23T12:54:35Z
2020-09-23T10:56:46Z,42.805,6.029,13.2973,4.59978,2470.217,2020-9-23T12:57:39Z
2020-09-23T10:59:47Z,42.805,6.029,13.2971,4.59976,2470.217,2020-9-23T13:00:40Z
2020-09-23T11:02:51Z,42.805,6.029,13.2972,4.59976,2470.203,2020-9-23T13:03:43Z
2020-09-23T11:05:52Z,42.805,6.029,13.2974,4.59976,2470.194,2020-9-23T13:06:44Z
2020-09-23T11:08:57Z,42.805,6.029,13.2975,4.59978,2470.203,2020-9-23T13:09:49Z
2020-09-23T11:12:02Z,42.805,6.029,13.2973,4.59976,2470.18,2020-9-23T13:12:54Z
2020-09-23T11:15:07Z,42.805,6.029,13.2976,4.59976,2470.18,2020-9-23T13:15:59Z
2020-09-23T11:18:11Z,42.805,6.029,13.2976,4.59975,2470.217,2020-9-23T13:19:03Z
2020-09-23T11:21:13Z,42.805,6.029,13.2972,4.59976,2470.217,2020-9-23T13:22:05Z
2020-09-23T11:24:18Z,42.805,6.029,13.2976,4.59976,2470.18,2020-9-23T13:25:10Z
2020-09-23T11:27:19Z,42.805,6.029,13.2974,4.59976,2470.194,2020-9-23T13:28:11Z
2020-09-23T11:30:23Z,42.805,6.029,13.2974,4.59975,2470.203,2020-9-23T13:31:15Z
2020-09-23T11:33:27Z,42.805,6.029,13.2977,4.59976,2470.18,2020-9-23T13:34:20Z
2020-09-23T11:36:31Z,42.805,6.029,13.2973,4.59976,2470.203,2020-9-23T13:37:23Z
2020-09-23T11:39:34Z,42.805,6.029,13.2974,4.59976,2470.217,2020-9-23T13:40:26Z
2020-09-23T11:42:37Z,42.805,6.029,13.2973,4.59976,2470.18,2020-9-23T13:43:29Z
2020-09-23T11:45:40Z,42.805,6.029,13.2976,4.59976,2470.203,2020-9-23T13:46:33Z
2020-09-23T11:48:45Z,42.805,6.029,13.2979,4.59977,2470.156,2020-9-23T13:49:38Z
2020-09-23T11:51:47Z,42.805,6.029,13.2974,4.59976,2470.18,2020-9-23T13:52:40Z
2020-09-23T11:54:49Z,42.805,6.029,13.2973,4.59976,2470.227,2020-9-23T13:55:41Z
2020-09-23T11:57:51Z,42.805,6.029,13.2974,4.59975,2470.18,2020-9-23T13:58:43Z
2020-09-23T12:00:53Z,42.805,6.029,13.2976,4.59980,2470.194,2020-9-23T14:01:45Z
2020-09-23T12:03:55Z,42.805,6.029,13.2974,4.59975,2470.156,2020-9-23T14:04:48Z
2020-09-23T12:06:59Z,42.805,6.029,13.2976,4.59976,2470.18,2020-9-23T14:07:51Z
2020-09-23T12:10:02Z,42.805,6.029,13.2978,4.59976,2470.203,2020-9-23T14:10:54Z
2020-09-23T12:13:05Z,42.805,6.029,13.2974,4.59975,2470.156,2020-9-23T14:13:58Z
2020-09-23T12:16:08Z,42.805,6.029,13.2971,4.59975,2470.18,2020-9-23T14:17:01Z
2020-09-23T12:19:13Z,42.805,6.029,13.2975,4.59975,2470.18,2020-9-23T14:20:04Z
2020-09-23T12:22:14Z,42.805,6.029,13.2976,4.59975,2470.203,2020-9-23T14:23:07Z
2020-09-23T12:25:18Z,42.805,6.029,13.2972,4.59975,2470.18,2020-9-23T14:26:10Z
2020-09-23T12:28:23Z,42.805,6.029,13.2973,4.59975,2470.18,2020-9-23T14:29:15Z
2020-09-23T12:31:26Z,42.805,6.029,13.2976,4.59978,2470.217,2020-9-23T14:32:18Z
2020-09-23T12:34:29Z,42.805,6.029,13.2974,4.59976,2470.203,2020-9-23T14:35:21Z
2020-09-23T12:37:33Z,42.805,6.029,13.2972,4.59975,2470.194,2020-9-23T14:38:25Z
2020-09-23T12:40:37Z,42.805,6.029,13.2974,4.59976,2470.156,2020-9-23T14:41:29Z
2020-09-23T12:43:38Z,42.805,6.029,13.2973,4.59976,2470.217,2020-9-23T14:44:31Z
2020-09-23T12:46:43Z,42.805,6.029,13.2976,4.59976,2470.18,2020-9-23T14:47:36Z
2020-09-23T12:49:46Z,42.805,6.029,13.2975,4.59975,2470.194,2020-9-23T14:50:39Z
2020-09-23T12:52:50Z,42.805,6.029,13.2971,4.59978,2470.166,2020-9-23T14:53:42Z
2020-09-23T12:55:51Z,42.805,6.029,13.2976,4.59977,2470.18,2020-9-23T14:56:44Z
2020-09-23T12:58:55Z,42.805,6.029,13.2974,4.59975,2470.171,2020-9-23T14:59:47Z
2020-09-23T13:01:58Z,42.805,6.029,13.2977,4.59976,2470.171,2020-9-23T15:02:51Z
2020-09-23T13:05:02Z,42.805,6.029,13.2973,4.59976,2470.18,2020-9-23T15:05:54Z
2020-09-23T13:08:06Z,42.805,6.029,13.2972,4.59975,2470.18,2020-9-23T15:08:59Z
2020-09-23T13:11:08Z,42.805,6.029,13.2975,4.59974,2470.194,2020-9-23T15:12:00Z
2020-09-23T13:14:12Z,42.805,6.029,13.2972,4.59975,2470.166,2020-9-23T15:15:05Z
2020-09-23T13:17:16Z,42.805,6.029,13.2976,4.59978,2470.18,2020-9-23T15:18:08Z
2020-09-23T13:20:19Z,42.805,6.029,13.2973,4.59976,2470.18,2020-9-23T15:21:11Z
2020-09-23T13:23:23Z,42.805,6.029,13.2974,4.59975,2470.217,2020-9-23T15:24:15Z
2020-09-23T13:26:26Z,42.805,6.029,13.2975,4.59976,2470.156,2020-9-23T15:27:18Z
2020-09-23T13:29:27Z,42.805,6.029,13.2974,4.59976,2470.171,2020-9-23T15:30:20Z
2020-09-23T13:32:29Z,42.805,6.029,13.2972,4.59976,2470.156,2020-9-23T15:33:21Z
2020-09-23T13:35:32Z,42.805,6.029,13.2975,4.59975,2470.217,2020-9-23T15:36:24Z
2020-09-23T13:38:35Z,42.805,6.029,13.2975,4.59976,2470.156,2020-9-23T15:39:27Z
2020-09-23T13:41:39Z,42.805,6.029,13.2976,4.59975,2470.194,2020-9-23T15:42:32Z
2020-09-23T13:44:43Z,42.805,6.029,13.2979,4.59975,2470.166,2020-9-23T15:45:35Z
2020-09-23T13:47:47Z,42.805,6.029,13.2974,4.59975,2470.171,2020-9-23T15:48:40Z
2020-09-23T13:50:51Z,42.805,6.029,13.2974,4.59975,2470.171,2020-9-23T15:51:43Z
2020-09-23T13:53:55Z,42.805,6.029,13.2970,4.59976,2470.156,2020-9-23T15:54:47Z
2020-09-23T13:56:58Z,42.805,6.029,13.2974,4.59975,2470.194,2020-9-23T15:57:51Z
2020-09-23T14:00:00Z,42.805,6.029,13.2974,4.59975,2470.18,2020-9-23T16:00:52Z
2020-09-23T14:03:03Z,42.805,6.029,13.2973,4.59975,2470.171,2020-9-23T16:03:55Z
2020-09-23T14:06:04Z,42.805,6.029,13.2975,4.59976,2470.18,2020-9-23T16:06:57Z
2020-09-23T14:09:08Z,42.805,6.029,13.2973,4.59976,2470.156,2020-9-23T16:10:01Z
2020-09-23T14:12:12Z,42.805,6.029,13.2977,4.59976,2470.156,2020-9-23T16:13:04Z
2020-09-23T14:15:15Z,42.805,6.029,13.2974,4.59975,2470.156,2020-9-23T16:16:07Z
2020-09-23T14:18:19Z,42.805,6.029,13.2973,4.59975,2470.171,2020-9-23T16:19:11Z
2020-09-23T14:21:22Z,42.805,6.029,13.2972,4.59976,2470.133,2020-9-23T16:22:14Z
2020-09-23T14:24:26Z,42.805,6.029,13.2976,4.59976,2470.171,2020-9-23T16:25:19Z
2020-09-23T14:27:28Z,42.805,6.029,13.2974,4.59975,2470.156,2020-9-23T16:28:20Z
2020-09-23T14:30:30Z,42.805,6.029,13.2976,4.59975,2470.133,2020-9-23T16:31:22Z
2020-09-23T14:33:35Z,42.805,6.029,13.2972,4.59976,2470.156,2020-9-23T16:34:27Z
2020-09-23T14:36:39Z,42.805,6.029,13.2975,4.59975,2470.133,2020-9-23T16:37:32Z
2020-09-23T14:39:41Z,42.805,6.029,13.2972,4.59975,2470.147,2020-9-23T16:40:33Z
2020-09-23T14:42:45Z,42.805,6.029,13.2976,4.59974,2470.133,2020-9-23T16:43:38Z
2020-09-23T14:45:49Z,42.805,6.029,13.2974,4.59975,2470.133,2020-9-23T16:46:41Z
2020-09-23T14:48:50Z,42.805,6.029,13.2974,4.59974,2470.147,2020-9-23T16:49:43Z
2020-09-23T14:51:53Z,42.805,6.029,13.2972,4.59974,2470.147,2020-9-23T16:52:46Z
2020-09-23T14:54:55Z,42.805,6.029,13.2973,4.59975,2470.133,2020-9-23T16:55:47Z
2020-09-23T14:57:59Z,42.805,6.029,13.2976,4.59976,2470.133,2020-9-23T16:58:51Z
2020-09-23T15:01:01Z,42.805,6.029,13.2973,4.59975,2470.147,2020-9-23T17:01:54Z
2020-09-23T15:04:05Z,42.805,6.029,13.2976,4.59975,2470.133,2020-9-23T17:04:58Z
2020-09-23T15:07:09Z,42.805,6.029,13.2973,4.59976,2470.11,2020-9-23T17:08:01Z
2020-09-23T15:10:13Z,42.805,6.029,13.2974,4.59976,2470.156,2020-9-23T17:11:05Z
2020-09-23T15:13:14Z,42.805,6.029,13.2975,4.59975,2470.133,2020-9-23T17:14:07Z